This demonstration page uses our WeatherBlox Daily Observations layout. Learn more.

Left ArrowRight Arrow

44.8408, -93.29828

Hourly Observations for August 3, 2021

Temp ( °F °C ) Dew Point ( °F °C ) Humidity (%) Winds ( mph kmh ) Pressure ( in mb ) Visibility ( mi km ) Precip ( " mm )
12:53 am 00:53 Clear 69 20.6 55 12.8 61 61 SW 6 9 30.08 1019 9 14 0.00 0.00
1:53 am 01:53 Clear 68 20 55 12.8 63 63 WSW 5 7 30.08 1019 9 14 0.00 0.00
2:53 am 02:53 Clear 67 19.4 55 12.8 66 66 WSW 5 7 30.09 1019 8 13 0.00 0.00
3:53 am 03:53 Clear 66 18.9 55 12.8 68 68 SW 5 7 30.09 1019 8 13 0.00 0.00
4:53 am 04:53 Mostly Clear 65 18.3 55 12.8 70 70 SW 3 6 30.09 1019 9 14 0.00 0.00
5:53 am 05:53 Mostly Clear 64 17.8 55 12.8 73 73 SSW 3 6 30.09 1019 8 13 0.00 0.00
6:53 am 06:53 Sunny 63 17.2 56 13.3 78 78 SW 3 6 30.10 1019 8 13 0.00 0.00
7:53 am 07:53 Sunny 65 18.3 56 13.3 73 73 SW 5 7 30.10 1019 7 11 0.00 0.00
8:53 am 08:53 Sunny 69 20.6 56 13.3 63 63 SW 6 9 30.11 1020 8 13 0.00 0.00
9:53 am 09:53 Mostly Sunny 73 22.8 57 13.9 57 57 WSW 6 9 30.09 1019 8 13 0.00 0.00
10:53 am 10:53 Mostly Sunny 77 25 58 14.4 52 52 SSW 7 11 30.09 1019 8 13 0.00 0.00
11:53 am 11:53 Sunny 80 26.7 56 13.3 44 44 VRB 5 7 30.08 1019 8 13 0.00 0.00
12:53 pm 12:53 Mostly Sunny 82 27.8 54 12.2 38 38 SW 9 15 30.06 1018 8 13 0.00 0.00
1:53 pm 13:53 Mostly Sunny 83 28.3 53 11.7 36 36 SW 7 11 30.05 1018 8 13 0.00 0.00
2:53 pm 14:53 Partly Cloudy 85 29.4 56 13.3 37 37 W 10 17 30.04 1017 8 13 0.00 0.00
3:53 pm 15:53 Partly Cloudy 84 28.9 54 12.2 36 36 SW 8 13 30.04 1017 8 13 0.00 0.00
4:53 pm 16:53 Partly Cloudy 83 28.3 56 13.3 40 40 SW 7 11 30.04 1017 7 11 0.00 0.00
5:53 pm 17:53 Mostly Sunny 83 28.3 57 13.9 41 41 SW 10 17 30.03 1017 7 11 0.00 0.00
6:53 pm 18:53 Mostly Sunny 82 27.8 58 14.4 44 44 SW 10 17 30.03 1017 7 11 0.00 0.00
7:53 pm 19:53 Mostly Sunny 81 27.2 58 14.4 45 45 SW 12 19 30.04 1017 7 11 0.00 0.00
8:53 pm 20:53 Clear 79 26.1 59 15 50 50 SW 6 9 30.04 1017 7 11 0.00 0.00
9:53 pm 21:53 Clear 77 25 59 15 54 54 SW 9 15 30.06 1018 7 11 0.00 0.00
10:53 pm 22:53 Clear 75 23.9 59 15 58 58 SSW 6 9 30.05 1018 7 11 0.00 0.00
11:53 pm 23:53 Clear 74 23.3 59 15 60 60 SW 7 11 30.06 1018 7 11 0.00 0.00

Powered by AerisWeather